Location: Te Maire Creek
(41.1333°S, 175.9167°E)
Time: 01:48:29
(UTC+00:00)

ATLAS CENTAUR R/B - Pass Details

Date: 19 May 2024
Orbit: 208 x 2382 km, 57.2° (Epoch: 18 June)

Event Time Altitude Azimuth Distance (km) Brightness Sun altitude
Exits shadow 16:32:23 - 86° (E) 1,747 5.5 -31.7°
Enters shadow 18:05:07 -33° 314° (NW) 8,867 7.7 -14.4°
Maximum altitude 18:26:17 36° 225° (SW) 417 0.8 -10.6°
